CW1490 Weather Reports


Display with metric or nautical units.
time (UTC)temp
F
wind
direction
speed
MPH
gust
MPH
rain 1hr
in
rain 24hr
in
rain mn
in
humidity
%
barometer
mb
20170118055059 32 246 0.0 0.0 0.02 0.36 0.01 96 1017.0
20170118053556 32 246 0.0 0.0 0.04 0.35 0.00 96 1017.4
20170118052158 32 246 0.0 0.0 0.06 0.35 0.00 96 1017.8
20170118050555 32 246 0.0 0.0 0.09 0.35 0.00 96 1017.9
20170118045050 32 245 0.0 0.0 0.09 0.34 0.34 96 1018.0
20170118043555 32 245 0.0 0.0 0.07 0.31 0.31 96 1018.1
20170118042046 32 238 0.0 0.0 0.05 0.28 0.28 96 1018.4
20170118040550 32 238 0.0 0.0 0.04 0.26 0.26 96 1018.6
20170118035042 32 238 0.0 0.0 0.03 0.25 0.25 96 1018.9
20170118033541 32 238 0.0 0.0 0.03 0.24 0.24 95 1019.0
20170118032043 32 238 0.0 1.0 0.03 0.23 0.23 95 1019.1
20170118030543 32 238 0.0 1.0 0.02 0.22 0.22 95 1019.1
20170118025039 32 238 0.0 1.0 0.03 0.22 0.22 95 1019.2
20170118023537 32 238 0.0 1.0 0.03 0.21 0.21 95 1019.4
20170118022035 32 238 0.0 1.0 0.03 0.20 0.20 95 1019.4
20170118020541 32 238 0.0 1.0 0.05 0.20 0.20 95 1019.5
20170118015031 32 238 0.0 2.0 0.06 0.19 0.19 95 1019.7
20170118013530 32 238 0.0 1.0 0.08 0.18 0.18 95 1019.9
20170118012034 32 278 1.0 2.0 0.08 0.17 0.17 94 1019.9
20170118010527 32 40 0.0 1.0 0.07 0.15 0.15 94 1019.9
20170118005025 32 40 0.0 2.0 0.05 0.12 0.12 94 1020.2
20170118003524 32 4 1.0 2.0 0.03 0.10 0.10 94 1020.3
20170118002024 32 4 0.0 1.0 0.03 0.09 0.09 93 1020.4
20170118000522 32 4 0.0 2.0 0.03 0.08 0.08 93 1020.5
20170117235020 32 4 0.0 1.0 0.03 0.07 0.07 92 1020.7
20170117233519 32 4 0.0 1.0 0.05 0.07 0.07 91 1020.9
20170117232021 32 4 0.0 1.0 0.05 0.06 0.06 90 1021.3
20170117230520 33 4 0.0 1.0 0.04 0.05 0.05 90 1021.2
20170117225019 33 4 0.0 3.0 0.04 0.04 0.04 89 1021.2
20170117223516 33 48 1.0 3.0 0.02 0.02 0.02 86 1021.3
20170117222016 34 172 0.0 2.0 0.01 0.01 0.01 83 1021.4
20170117220617 34 172 0.0 1.0 0.01 0.01 0.01 81 1021.3
20170117215016 35 172 0.0 1.0 0.00 0.00 0.00 76 1021.1
20170117213516 36 172 1.0 2.0 0.00 0.00 0.00 72 1021.1
20170117212014 36 172 0.0 1.0 0.00 0.00 0.00 68 1020.9
20170117210513 37 172 0.0 2.0 0.00 0.00 0.00 66 1020.7
20170117205015 37 172 0.0 2.0 0.00 0.00 0.00 62 1020.7
20170117203512 38 172 0.0 2.0 0.00 0.00 0.00 55 1020.6
20170117202015 39 172 0.0 2.0 0.00 0.00 0.00 55 1020.7
20170117200512 39 116 0.0 3.0 0.00 0.00 0.00 55 1020.7
20170117195011 38 44 0.0 1.0 0.00 0.00 0.00 58 1020.9
20170117193511 39 44 0.0 1.0 0.00 0.00 0.00 53 1021.1
20170117192014 39 44 0.0 2.0 0.00 0.00 0.00 57 1020.9
20170117190508 39 44 0.0 1.0 0.00 0.00 0.00 55 1021.0
20170117185007 39 44 0.0 1.0 0.00 0.00 0.00 54 1021.1
20170117183505 38 44 0.0 1.0 0.00 0.00 0.00 60 1021.1
20170117182000 38 44 0.0 1.0 0.00 0.00 0.00 58 1021.4
20170117180457 38 44 0.0 2.0 0.00 0.00 0.00 58 1021.5
20170117174956 37 44 0.0 2.0 0.00 0.00 0.00 59 1021.7
20170117173451 36 44 1.0 3.0 0.00 0.00 0.00 60 1022.1
20170117170457 36 38 2.0 4.0 0.00 0.00 0.00 61 1022.5
20170117164952 36 19 2.0 4.0 0.00 0.00 0.00 62 1022.6
20170117163448 35 4 1.0 3.0 0.00 0.00 0.00 65 1023.1
20170117161940 33 50 1.0 3.0 0.00 0.00 0.00 70 1023.5
20170117160434 31 49 0.0 2.0 0.00 0.00 0.00 73 1024.0
20170117155235 30 49 1.0 3.0 0.00 0.00 0.00 77 1024.1
20170117153431 29 49 0.0 1.0 0.00 0.00 0.00 77 1024.3
20170117151925 28 49 0.0 4.0 0.00 0.00 0.00 79 1024.3
20170117150420 27 51 2.0 4.0 0.00 0.00 0.00 79 1024.5
20170117144919 27 12 3.0 5.0 0.00 0.00 0.00 82 1024.5
20170117143418 25 12 2.0 5.0 0.00 0.00 0.00 85 1024.7
20170117141913 24 25 2.0 5.0 0.00 0.00 0.00 87 1024.7
20170117140411 23 48 3.0 5.0 0.00 0.00 0.00 89 1024.9
20170117134908 22 43 2.0 3.0 0.00 0.00 0.00 92 1024.9
20170117133404 20 50 2.0 4.0 0.00 0.00 0.00 93 1024.8
20170117131916 18 31 1.0 2.0 0.00 0.00 0.00 92 1024.9
20170117130356 18 31 0.0 2.0 0.00 0.00 0.00 92 1024.6
20170117124852 18 16 0.0 1.0 0.00 0.00 0.00 92 1024.6
20170117123401 17 16 0.0 3.0 0.00 0.00 0.00 92 1024.3
20170117121849 17 16 0.0 2.0 0.00 0.00 0.00 92 1024.1
20170117120346 18 16 0.0 4.0 0.00 0.00 0.00 92 1023.8
20170117114851 18 12 2.0 3.0 0.00 0.00 0.00 92 1023.7
20170117113344 17 261 0.0 0.0 0.00 0.00 0.00 92 1023.4
20170117111845 17 261 1.0 2.0 0.00 0.00 0.00 92 1023.4
20170117110345 17 219 0.0 2.0 0.00 0.00 0.00 92 1023.5
20170117104847 17 219 1.0 2.0 0.00 0.00 0.00 92 1023.3
20170117103339 17 219 0.0 1.0 0.00 0.00 0.00 92 1023.4
20170117101840 17 118 0.0 1.0 0.00 0.00 0.00 92 1023.4
20170117100416 17 118 0.0 1.0 0.00 0.00 0.00 92 1023.4
20170117094835 18 118 0.0 1.0 0.00 0.00 0.00 92 1023.3
20170117093335 18 118 1.0 3.0 0.00 0.00 0.00 92 1023.2
20170117091844 18 207 0.0 2.0 0.00 0.00 0.00 92 1023.2
20170117090334 18 248 0.0 2.0 0.00 0.00 0.00 92 1023.2
20170117084834 18 248 1.0 3.0 0.00 0.00 0.00 91 1023.3
20170117083535 18 301 0.0 3.0 0.00 0.00 0.00 92 1023.1
20170117081832 19 354 1.0 4.0 0.00 0.00 0.00 91 1023.4
20170117080323 19 279 0.0 3.0 0.00 0.00 0.00 91 1023.4
20170117074824 19 299 1.0 3.0 0.00 0.00 0.00 91 1023.7
20170117073327 20 299 0.0 2.0 0.00 0.00 0.00 90 1023.5
20170117071819 20 299 0.0 2.0 0.00 0.00 0.00 90 1023.4
20170117070315 20 272 0.0 2.0 0.00 0.00 0.00 90 1023.2
20170117064814 20 272 1.0 2.0 0.00 0.00 0.00 90 1023.1
20170117063312 21 272 1.0 3.0 0.00 0.00 0.00 89 1022.9
20170117061822 21 272 0.0 2.0 0.00 0.00 0.00 89 1023.1
20170117060317 23 272 0.0 2.0 0.00 0.00 0.00 89 1023.1